Regional Weather Roundup
Issued by NWS

Home | Current Version | Previous Version | Text Only | Print | Product List | Glossary Off
Versions: 1 2 3 4 5 6 7 8 9 10 11 12 13 14 15 16 17 18 19 20 21 22 23 24 25 26 27 28

000
ASUS45 KPSR 190210
RWRAZ

ARIZONA HOURLY REGIONAL WEATHER ROUNDUP
NATIONAL WEATHER SERVICE PHOENIX AZ
700 PM MST SAT FEB 18 2017

NOTE: FAIR INDICATES FEW OR NO CLOUDS BELOW 12,000 FEET WITH NO
SIGNIFICANT WEATHER AND/OR OBSTRUCTIONS TO VISIBILITY.

AZZ001>003-036-190300-
NORTHWEST ARIZONA

CITY           SKY/WX    TMP DP  RH WIND       PRES   REMARKS
BULLHEAD CITY  RAIN      57  55  94 N6        29.58R
KINGMAN        CLOUDY    49  42  77 SE20      29.58R
$$

AZZ004>008-015-016-018-190300-
NORTH CENTRAL ARIZONA

CITY           SKY/WX    TMP DP  RH WIND       PRES   REMARKS
GRAND CANYON   CLOUDY    38  37  97 CALM      29.69R
WILLIAMS       CLOUDY    39  36  87 E9G20     29.67S WCI  33
PRESCOTT       LGT RAIN  43  40  89 S9        29.64R
FLAGSTAFF      CLOUDY    38  35  89 CALM      29.68R
PAYSON         CLOUDY    43  41  93 VRB7      29.70R
PAGE           MOCLDY    48  40  73 CALM      29.66R
$$

AZZ009>014-017-190300-
NORTHEAST ARIZONA

CITY           SKY/WX    TMP DP  RH WIND       PRES   REMARKS
WINSLOW        CLOUDY    53  34  48 SE13      29.65R
SAINT JOHNS    MOCLDY    48  29  47 S6        29.67S
WINDOW ROCK    CLOUDY    46  26  45 SE5       29.73R
SHOW LOW       CLOUDY    41  30  65 S9        29.72R
$$

AZZ023-190300-
GREATER PHOENIX AREA

CITY           SKY/WX    TMP DP  RH WIND       PRES   REMARKS
PHOENIX        LGT RAIN  56  48  74 S16G25    29.63R
BUCKEYE        CLOUDY    52  52 100 S7        29.64R
GLENDALE       LGT RAIN  55  55 100 S9        29.64R
LUKE AFB       LGT RAIN  53  53  99 SW20      29.62R
DEER VALLEY    LGT RAIN  54  52  93 E13       29.62R
SCOTTSDALE     LGT RAIN  55  51  86 SE7       29.64R
MESA-FALCON    LGT RAIN N/A N/A N/A E8        29.61R
MESA-GATEWAY   LGT RAIN  54  52  94 SE6       29.66R
CHANDLER       DRIZZLE   57  48  72 S9        29.64R
$$

AZZ027-028-190300-
SOUTHWEST MARICOPA COUNTY AND PINAL COUNTY

CITY           SKY/WX    TMP DP  RH WIND       PRES   REMARKS
CASA GRANDE    NOT AVBL
GILA BEND      LGT RAIN  53  50  89 S8        29.63R
$$

AZZ503-504-507>509-190300-
SOUTHEAST ARIZONA

CITY           SKY/WX    TMP DP  RH WIND       PRES   REMARKS
TUCSON         CLOUDY    53  40  61 S10       29.69R
DAVIS-MONTHAN  CLOUDY    52  39  61 S8        29.69R
RYAN FIELD     CLOUDY    54  39  58 S17G25    29.70R
NOGALES        CLOUDY    43  37  79 SE16G25   29.72R
SIERRA VISTA   CLOUDY    42  36  79 S21       29.71F
DOUGLAS        CLOUDY    42  39  89 SE18G25   29.77F
SAFFORD        CLOUDY    54  41  61 S23G29    29.68R
$$

AZZ020-021-025-026-031-190300-
SOUTHWEST ARIZONA

CITY           SKY/WX    TMP DP  RH WIND       PRES   REMARKS
YUMA           CLOUDY    55  51  86 SW7       29.61R
$$

CAZ031-033-041-043-047-048-061-190300-
SOUTHERN CALIFORNIA

CITY           SKY/WX    TMP DP  RH WIND       PRES   REMARKS
DOWNTOWN L.A.  PTCLDY    59  52  77 CALM      29.60R
L.A. AIRPORT   PTCLDY    57  52  83 W13       29.61R
SAN DIEGO      LGT RAIN  58  52  80 W7        29.65R
BURBANK        PTCLDY    56  49  77 E3        29.60R
ONTARIO        CLOUDY    54  50  86 SW9       29.60R
RIVERSIDE      CLOUDY    56  51  84 W7        29.60R
PALM SPRINGS   MOCLDY    58  54  86 VRB7      29.59R
EL CENTRO NAS  LGT RAIN  56  52  86 S5        29.62R
IMPERIAL       LGT RAIN  56  53  90 CALM      29.60R
BLYTHE         LGT RAIN  54  54 100 S8        29.58R
NEEDLES        LGT RAIN  58  54  86 NE7       29.56R
$$

NVZ020-UTZ003-190300-
SOUTHERN NEVADA-UTAH

CITY           SKY/WX    TMP DP  RH WIND       PRES   REMARKS
LAS VEGAS      LGT RAIN  52  49  89 E8        29.57R
SALT LAKE CITY CLOUDY    52  35  52 S9        29.59R
$$

NMZ009-TXZ055-190300-
NEW MEXICO-WEST TEXAS

CITY           SKY/WX    TMP DP  RH WIND       PRES   REMARKS
ALBUQUERQUE    CLOUDY    50  32  50 SE6       29.77S
EL PASO        PTCLDY    58  28  32 E7        29.66R
$$


........................KEY........................
SKY/WX - SKY CONDITION/WEATHER
TMP    - TEMPERATURE IN FAHRENHEIT
DP     - DEW POINT IN FAHRENHEIT
RH     - RELATIVE HUMIDITY IN PERCENT
WIND   - DIRECTION AND SPEED IN MILES PER HOUR (MPH)
VRB    - VARIABLE WIND DIRECTION
PRES   - MEAN SEA LEVEL PRESSURE IN INCHES OF MERCURY
         F - FALLING PRESSURE   R - RISING PRESSURE
         S - STEADY PRESSURE
VSB    - VISIBILITY IN MILES
HX     - HEAT INDEX IN FAHRENHEIT
WCI    - WIND CHILL INDEX IN FAHRENHEIT
TC     - TEMPERATURE IN CELSIUS WHICH IS ALSO KNOWN AS
         TEMPERATURE IN CENTIGRADE
AFB    - AIR FORCE BASE
         LUKE AFB IS LUKE AIR FORCE BASE
         DAVIS-MONTHAN IS DAVIS-MONTHAN AIR FORCE BASE
NAS    - NAVAL AIR STATION
         EL CENTRO NAS IS EL CENTRO NAVAL AIR STATION
N/A    - NOT AVAILABLE





USA.gov is the U.S. government's official web portal to all federal, state and local government web resources and services.